Regional Weather Roundup
Issued by NWS

Home | Current Version | Previous Version | Graphics & Text | Print | Product List | Glossary On
Versions: 1 2 3 4 5 6 7 8 9 10 11 12 13 14 15 16 17 18 19 20 21 22 23 24 25 26 27 28 29 30 31 32 33 34 35 36 37 38 39 40 41 42 43 44 45 46 47 48 49 50
000
ASUS45 KBOU 131710
RWRCO

WEATHER ROUNDUP FOR COLORADO
NATIONAL WEATHER SERVICE DENVER/BOULDER CO
1000 AM MST WED DEC 13 2017

NOTE: "FAIR" INDICATES FEW OR NO CLOUDS BELOW 12000 FEET WITH NO
SIGNIFICANT WEATHER AND/OR OBSTRUCTIONS TO VISIBILITY.

COZ001>005-013-030-031-131800-
...NORTHWEST COLORADO...

CITY           SKY/WX    TMP DP  RH WIND       PRES   REMARKS
CRAIG          CLOUDY    23  17  78 CALM      30.26S
HAYDEN         CLOUDY    28  19  69 SE5       30.26S WCI  23
MEEKER         CLOUDY    29  16  58 CALM      30.25S
RABBIT EARS PA CLOUDY    28   5  37 W9        30.26S WCI  20
STEAMBOAT SPGS CLOUDY    25  15  67 CALM      30.24F
WALDEN         CLOUDY    27  14  59 SE5       30.23F WCI  21
$$

COZ006>008-011-131800-
...WEST CENTRAL VALLEYS...

CITY           SKY/WX    TMP DP  RH WIND       PRES   REMARKS
GRAND JUNCTION FAIR      36  14  40 E8        30.25S
MONTROSE       FAIR      36  11  35 CALM      30.28F
EAGLE          CLOUDY    18  12  77 NE3       30.32F
RIFLE          CLOUDY    27  14  58 CALM      30.29R
DELTA          FAIR      29  10  45 CALM      30.29R
NUCLA          FAIR      32   7  34 CALM      30.29F
$$

COZ017>023-064>068-131800-
...SOUTHWEST COLORADO...

CITY           SKY/WX    TMP DP  RH WIND       PRES   REMARKS
DURANGO        FAIR      32   9  38 MISG      30.23R
CORTEZ         FAIR      36   9  32 CALM      30.24S
PAGOSA SPRINGS FAIR      38   4  24 CALM      30.24R
TELLURIDE      FAIR      39   0  19 SE3       30.30F
WOLF CREEK PAS FAIR      32 -11  15 N8G16     30.39S WCI  25
$$

COZ009-010-012-014-032>034-037-058>063-131800-
...CENTRAL COLORADO...

CITY           SKY/WX    TMP DP  RH WIND       PRES   REMARKS
ASPEN          CLOUDY    33  14  45 CALM      30.25S
BUENA VISTA    PTSUNNY   34   9  35 CALM      30.22F
COPPER MTN     NOT AVBL
BERTHOUD PASS  CLOUDY    19   7  58 NW18G26   30.27S WCI   4
COTTONWOOD PAS CLOUDY    45 -17   7 NW5       30.27R
GUNNISON       FAIR      17   6  62 CALM      30.35F
KREMMLING      CLOUDY    21  14  73 CALM      30.30F
LEADVILLE      CLOUDY    31   4  31 E5        30.27S WCI  26
MONARCH PASS   CLOUDY    27   0  31 W15       30.43F WCI  15
SALIDA         PTSUNNY   37  13  37 NW6       30.29F
SUNLIGHT       CLOUDY    30   1  29 W6        30.35S WCI  24
WILKERSON PASS CLOUDY    32 -17  11 NW9       30.30S WCI  24
$$

COZ069>075-131800-
...SAN LUIS VALLEY/SANGRE DE CRISTO MOUNTAINS...

CITY           SKY/WX    TMP DP  RH WIND       PRES   REMARKS
ALAMOSA        FAIR      28   8  43 CALM      30.25F
DEL NORTE      PTSUNNY   41   4  22 W9        30.24F
LA VETA PASS   FAIR      34   3  27 CALM        N/A
SAGUACHE       FAIR      37   7  28 SE7       30.25S
$$

COZ035-036-038>040-131800-
...NORTHERN COLORADO FRONT RANGE...

CITY           SKY/WX    TMP DP  RH WIND       PRES   REMARKS
DENVER INTL AP PTSUNNY   45   8  22 SE6       30.17S
DMNS CITY PARK NOT AVBL
AURORA         PTSUNNY   44   8  22 E9        30.18F
FRONT RANGE AP PTSUNNY   45  10  24 NE5       30.19S
ERIE MUNI ARPT   N/A    N/A N/A N/A MISG        N/A
BOULDER MUN AP FAIR      50   9  18 SE7       30.15F
CENTENNIAL     PTSUNNY   43   9  24 SE7       30.18S
BROOMFIELD     PTSUNNY   46   7  19 S10       30.18S
FORT COLLINS   FAIR      47  12  24 S13       30.16S
LONGMONT       FAIR      51   9  19 SE3       30.18S
$$

COZ041-046-047-076>085-087-088-131800-
...PIKES PEAK/PALMER DIVIDE AND SOUTHERN FOOTHILLS...

CITY           SKY/WX    TMP DP  RH WIND       PRES   REMARKS
COLO. SPRINGS  PTSUNNY   45   6  20 NW6       30.19R
A. F. ACADEMY  CLOUDY    41   4  21 N17       30.17S
SCHRIEVER AFB  PTSUNNY   41   6  22 N18G25    30.16R
CHEYENNE MTN   PTSUNNY   42   1  18 NW3       30.14R
ELLICOTT       NOT AVBL
FALCON         CLOUDY    40   5  23 N10G16    30.19R
FORT CARSON    CLOUDY    48   4  16 W5        30.17R
LIMON          FAIR      43  10  26 N23G30    30.15F
MONUMENT HILL  PTSUNNY   36   9  32 NE7       30.21S
CANON CITY     FAIR      50   9  18 E8        30.19R
WALSENBURG     FAIR      48   7  18 CALM      30.23S
TRINIDAD       FAIR      46   8  21 CALM      30.23R
$$

COZ042>045-048>051-090-091-131800-
...NORTHEAST COLORADO...

CITY           SKY/WX    TMP DP  RH WIND       PRES   REMARKS
GREELEY ARPT   FAIR      48  11  22 N10       30.16R
AKRON          FAIR      47  11  23 MISG      30.15R
BURLINGTON     FAIR      50  16  25 N23G36    30.12R
WRAY           FAIR      50  14  23 NW24G31   30.11S
YUMA           FAIR      45  14  29 NW24G33   30.14R
STERLING       FAIR      46  16  29 N24       30.13S
HOLYOKE        FAIR      52  14  22 NW24G31   30.09S
FORT MORGAN    FAIR      49   9  20 N28       30.16S
$$

COZ086-089-092>099-131800-
...SOUTHEAST COLORADO...

CITY           SKY/WX    TMP DP  RH WIND       PRES   REMARKS
PUEBLO         FAIR      51   8  17 SW7       30.19R
LA JUNTA       FAIR      48  13  24 W6        30.17R
LAMAR          FAIR      52  13  21 W8        30.12S
SPRINGFIELD      N/A     51  12  21 N21G26    30.13R
$$



USA.gov is the U.S. government's official web portal to all federal, state and local government web resources and services.